Time,TemperatureF,DewpointF,PressureIn,WindDirection,WindDirectionDegrees,WindSpeedMPH,WindSpeedGustMPH,Humidity,HourlyPrecipIn,Conditions,Clouds,dailyrainin,SoftwareType,DateUTC
2013-01-27 00:02:00,42.5,38.0,30.07,West,271,0.0,-999.0,85,-99.99,,,0.00,weatherlink.com 1.10,2013-01-27 08:02:00,
2013-01-27 00:17:00,42.9,39.0,30.07,West,271,0.0,-999.0,86,-99.99,,,0.00,weatherlink.com 1.10,2013-01-27 08:17:00,
2013-01-27 00:32:00,43.2,39.0,30.06,West,271,0.0,-999.0,86,-99.99,,,0.00,weatherlink.com 1.10,2013-01-27 08:32:00,
2013-01-27 00:47:00,43.2,39.0,30.06,West,271,0.0,-999.0,85,-99.99,,,0.00,weatherlink.com 1.10,2013-01-27 08:47:00,
2013-01-27 01:02:00,43.1,39.0,30.06,West,271,0.0,-999.0,85,-99.99,,,0.00,weatherlink.com 1.10,2013-01-27 09:02:00,
2013-01-27 01:19:00,42.6,38.0,30.06,West,271,0.0,-999.0,85,-99.99,,,0.00,weatherlink.com 1.10,2013-01-27 09:19:00,
2013-01-27 01:32:00,42.2,38.0,30.06,West,271,0.0,-999.0,86,-99.99,,,0.00,weatherlink.com 1.10,2013-01-27 09:32:00,
2013-01-27 01:47:00,42.1,38.0,30.06,West,271,0.0,-999.0,86,-99.99,,,0.00,weatherlink.com 1.10,2013-01-27 09:47:00,
2013-01-27 02:02:00,41.9,38.0,30.07,West,271,0.0,-999.0,86,-99.99,,,0.00,weatherlink.com 1.10,2013-01-27 10:02:00,
2013-01-27 02:17:00,41.3,37.0,30.07,West,271,0.0,-999.0,86,-99.99,,,0.00,weatherlink.com 1.10,2013-01-27 10:17:00,
2013-01-27 02:32:00,41.3,38.0,30.07,West,271,0.0,-999.0,87,-99.99,,,0.00,weatherlink.com 1.10,2013-01-27 10:32:00,
2013-01-27 02:47:00,41.8,38.0,30.06,West,271,0.0,-999.0,87,-99.99,,,0.00,weatherlink.com 1.10,2013-01-27 10:47:00,
2013-01-27 03:02:00,41.8,38.0,30.06,West,271,0.0,-999.0,87,-99.99,,,0.00,weatherlink.com 1.10,2013-01-27 11:02:00,
2013-01-27 03:17:00,41.3,37.0,30.06,West,271,0.0,-999.0,86,-99.99,,,0.00,weatherlink.com 1.10,2013-01-27 11:17:00,
2013-01-27 03:32:00,41.1,38.0,30.07,West,271,0.0,-999.0,87,-99.99,,,0.00,weatherlink.com 1.10,2013-01-27 11:32:00,
2013-01-27 03:47:00,40.6,37.0,30.07,West,271,0.0,-999.0,87,-99.99,,,0.00,weatherlink.com 1.10,2013-01-27 11:47:00,
2013-01-27 04:02:00,40.2,37.0,30.07,West,271,0.0,-999.0,87,-99.99,,,0.00,weatherlink.com 1.10,2013-01-27 12:02:00,
2013-01-27 04:17:00,39.9,37.0,30.07,West,271,0.0,-999.0,88,-99.99,,,0.00,weatherlink.com 1.10,2013-01-27 12:17:00,
2013-01-27 04:32:00,39.6,36.0,30.07,West,271,0.0,-999.0,88,-99.99,,,0.00,weatherlink.com 1.10,2013-01-27 12:32:00,
2013-01-27 04:47:00,39.5,36.0,30.07,West,271,0.0,-999.0,88,-99.99,,,0.00,weatherlink.com 1.10,2013-01-27 12:47:00,
2013-01-27 05:02:00,40.1,36.0,30.06,West,271,0.0,-999.0,86,-99.99,,,0.00,weatherlink.com 1.10,2013-01-27 13:02:00,
2013-01-27 05:17:00,40.3,36.0,30.07,West,271,0.0,-999.0,84,-99.99,,,0.00,weatherlink.com 1.10,2013-01-27 13:17:00,
2013-01-27 05:32:00,40.6,36.0,30.06,West,271,0.0,-999.0,83,-99.99,,,0.00,weatherlink.com 1.10,2013-01-27 13:32:00,
2013-01-27 05:47:00,40.6,36.0,30.07,West,271,0.0,-999.0,82,-99.99,,,0.00,weatherlink.com 1.10,2013-01-27 13:47:00,
2013-01-27 06:02:00,40.5,35.0,30.08,West,271,0.0,-999.0,82,-99.99,,,0.00,weatherlink.com 1.10,2013-01-27 14:02:00,
2013-01-27 06:17:00,40.5,35.0,30.08,West,271,0.0,-999.0,82,-99.99,,,0.00,weatherlink.com 1.10,2013-01-27 14:17:00,
2013-01-27 06:32:00,40.2,35.0,30.09,West,271,0.0,-999.0,82,-99.99,,,0.00,weatherlink.com 1.10,2013-01-27 14:32:00,
2013-01-27 06:49:00,40.1,35.0,30.09,West,271,0.0,-999.0,83,-99.99,,,0.00,weatherlink.com 1.10,2013-01-27 14:49:00,
2013-01-27 07:02:00,40.2,35.0,30.09,West,271,0.0,-999.0,82,-99.99,,,0.00,weatherlink.com 1.10,2013-01-27 15:02:00,
2013-01-27 07:17:00,40.1,35.0,30.10,East,86,0.0,-999.0,82,-99.99,,,0.00,weatherlink.com 1.10,2013-01-27 15:17:00,
2013-01-27 07:32:00,40.1,35.0,30.11,ENE,59,0.0,-999.0,81,-99.99,,,0.00,weatherlink.com 1.10,2013-01-27 15:32:00,
2013-01-27 07:48:00,40.2,35.0,30.11,NE,54,0.0,-999.0,81,-99.99,,,0.00,weatherlink.com 1.10,2013-01-27 15:48:00,
2013-01-27 08:02:00,40.3,35.0,30.12,NE,54,0.0,-999.0,81,-99.99,,,0.00,weatherlink.com 1.10,2013-01-27 16:02:00,
2013-01-27 08:17:00,40.9,36.0,30.14,NE,54,0.0,-999.0,81,-99.99,,,0.00,weatherlink.com 1.10,2013-01-27 16:17:00,
2013-01-27 08:33:00,41.9,36.0,30.14,North,360,0.0,-999.0,78,-99.99,,,0.00,weatherlink.com 1.10,2013-01-27 16:33:00,
2013-01-27 08:48:00,43.5,35.0,30.14,NNE,14,0.0,-999.0,72,-99.99,,,0.00,weatherlink.com 1.10,2013-01-27 16:48:00,
2013-01-27 09:02:00,44.8,35.0,30.15,NNE,28,0.0,-999.0,68,-99.99,,,0.00,weatherlink.com 1.10,2013-01-27 17:02:00,
2013-01-27 09:18:00,46.5,34.0,30.15,West,271,0.0,-999.0,62,-99.99,,,0.00,weatherlink.com 1.10,2013-01-27 17:18:00,
2013-01-27 09:33:00,48.3,34.0,30.15,WNW,291,0.0,-999.0,59,-99.99,,,0.00,weatherlink.com 1.10,2013-01-27 17:33:00,
2013-01-27 09:48:00,49.4,34.0,30.15,West,278,0.0,-999.0,56,-99.99,,,0.00,weatherlink.com 1.10,2013-01-27 17:48:00,
2013-01-27 10:03:00,51.0,35.0,30.15,NW,316,1.0,-999.0,54,-99.99,,,0.00,weatherlink.com 1.10,2013-01-27 18:03:00,
2013-01-27 10:18:00,51.7,33.0,30.15,East,80,0.0,-999.0,50,-99.99,,,0.00,weatherlink.com 1.10,2013-01-27 18:18:00,
2013-01-27 10:33:00,52.2,34.0,30.16,West,263,0.0,-999.0,50,-99.99,,,0.00,weatherlink.com 1.10,2013-01-27 18:33:00,
2013-01-27 10:48:00,52.9,34.0,30.17,NW,304,1.0,-999.0,49,-99.99,,,0.00,weatherlink.com 1.10,2013-01-27 18:48:00,
2013-01-27 11:02:00,53.8,34.0,30.17,West,269,0.0,-999.0,47,-99.99,,,0.00,weatherlink.com 1.10,2013-01-27 19:02:00,
2013-01-27 11:18:00,54.2,34.0,30.17,West,263,1.0,-999.0,47,-99.99,,,0.00,weatherlink.com 1.10,2013-01-27 19:18:00,
2013-01-27 11:34:00,53.9,35.0,30.17,West,277,0.0,-999.0,50,-99.99,,,0.00,weatherlink.com 1.10,2013-01-27 19:34:00,
2013-01-27 11:48:00,54.5,35.0,30.17,WNW,287,0.0,-999.0,48,-99.99,,,0.00,weatherlink.com 1.10,2013-01-27 19:48:00,
2013-01-27 12:04:00,54.8,34.0,30.16,WSW,258,0.0,-999.0,45,-99.99,,,0.00,weatherlink.com 1.10,2013-01-27 20:04:00,
2013-01-27 12:18:00,55.6,35.0,30.16,West,271,1.0,-999.0,46,-99.99,,,0.00,weatherlink.com 1.10,2013-01-27 20:18:00,
2013-01-27 12:34:00,56.5,33.0,30.15,West,262,1.0,-999.0,41,-99.99,,,0.00,weatherlink.com 1.10,2013-01-27 20:34:00,
2013-01-27 12:48:00,56.9,31.0,30.15,West,277,1.0,-999.0,38,-99.99,,,0.00,weatherlink.com 1.10,2013-01-27 20:48:00,
2013-01-27 13:04:00,57.0,30.0,30.14,NW,311,0.0,-999.0,36,-99.99,,,0.00,weatherlink.com 1.10,2013-01-27 21:04:00,
2013-01-27 13:19:00,58.0,30.0,30.14,NW,316,0.0,-999.0,34,-99.99,,,0.00,weatherlink.com 1.10,2013-01-27 21:19:00,
2013-01-27 13:34:00,58.4,31.0,30.14,WNW,282,1.0,-999.0,35,-99.99,,,0.00,weatherlink.com 1.10,2013-01-27 21:34:00,
2013-01-27 13:49:00,58.3,36.0,30.13,WSW,242,0.0,-999.0,43,-99.99,,,0.00,weatherlink.com 1.10,2013-01-27 21:49:00,
2013-01-27 14:04:00,57.6,34.0,30.14,West,281,0.0,-999.0,42,-99.99,,,0.00,weatherlink.com 1.10,2013-01-27 22:04:00,
2013-01-27 14:19:00,57.3,33.0,30.14,WSW,244,0.0,-999.0,40,-99.99,,,0.00,weatherlink.com 1.10,2013-01-27 22:19:00,
2013-01-27 14:34:00,57.3,34.0,30.14,SW,233,0.0,-999.0,41,-99.99,,,0.00,weatherlink.com 1.10,2013-01-27 22:34:00,
2013-01-27 14:49:00,57.8,33.0,30.13,SW,225,1.0,-999.0,40,-99.99,,,0.00,weatherlink.com 1.10,2013-01-27 22:49:00,
2013-01-27 15:04:00,58.3,34.0,30.13,SSW,197,2.0,-999.0,41,-99.99,,,0.00,weatherlink.com 1.10,2013-01-27 23:04:00,
2013-01-27 15:19:00,58.1,34.0,30.13,SW,229,0.0,-999.0,40,-99.99,,,0.00,weatherlink.com 1.10,2013-01-27 23:19:00,
2013-01-27 15:34:00,57.3,33.0,30.13,SW,222,1.0,-999.0,40,-99.99,,,0.00,weatherlink.com 1.10,2013-01-27 23:34:00,
2013-01-27 15:49:00,57.0,31.0,30.12,SW,225,2.0,-999.0,38,-99.99,,,0.00,weatherlink.com 1.10,2013-01-27 23:49:00,
2013-01-27 16:04:00,56.6,33.0,30.12,SW,216,0.0,-999.0,41,-99.99,,,0.00,weatherlink.com 1.10,2013-01-28 00:04:00,
2013-01-27 16:19:00,56.9,32.0,30.12,SSW,209,0.0,-999.0,39,-99.99,,,0.00,weatherlink.com 1.10,2013-01-28 00:19:00,
2013-01-27 16:35:00,56.0,34.0,30.12,WSW,246,3.0,-999.0,43,-99.99,,,0.00,weatherlink.com 1.10,2013-01-28 00:35:00,
2013-01-27 16:49:00,54.7,36.0,30.12,SW,233,0.0,-999.0,49,-99.99,,,0.00,weatherlink.com 1.10,2013-01-28 00:49:00,
2013-01-27 17:04:00,53.8,37.0,30.12,SW,236,0.0,-999.0,54,-99.99,,,0.00,weatherlink.com 1.10,2013-01-28 01:04:00,
2013-01-27 17:20:00,52.3,39.0,30.12,SSW,211,0.0,-999.0,60,-99.99,,,0.00,weatherlink.com 1.10,2013-01-28 01:20:00,
2013-01-27 17:34:00,51.1,39.0,30.12,SW,232,0.0,-999.0,63,-99.99,,,0.00,weatherlink.com 1.10,2013-01-28 01:34:00,
2013-01-27 17:49:00,50.2,39.0,30.13,WNW,282,0.0,-999.0,65,-99.99,,,0.00,weatherlink.com 1.10,2013-01-28 01:49:00,
2013-01-27 18:04:00,49.4,38.0,30.13,WNW,282,0.0,-999.0,66,-99.99,,,0.00,weatherlink.com 1.10,2013-01-28 02:04:00,
2013-01-27 18:20:00,48.5,38.0,30.13,WSW,246,0.0,-999.0,68,-99.99,,,0.00,weatherlink.com 1.10,2013-01-28 02:20:00,
2013-01-27 18:35:00,47.9,39.0,30.13,WNW,290,0.0,-999.0,70,-99.99,,,0.00,weatherlink.com 1.10,2013-01-28 02:35:00,
2013-01-27 18:50:00,47.1,38.0,30.14,WNW,290,0.0,-999.0,72,-99.99,,,0.00,weatherlink.com 1.10,2013-01-28 02:50:00,
2013-01-27 19:06:00,46.5,38.0,30.14,WNW,290,0.0,-999.0,73,-99.99,,,0.00,weatherlink.com 1.10,2013-01-28 03:06:00,
2013-01-27 19:20:00,45.8,38.0,30.14,WNW,290,0.0,-999.0,75,-99.99,,,0.00,weatherlink.com 1.10,2013-01-28 03:20:00,
2013-01-27 19:35:00,45.2,39.0,30.14,WNW,290,0.0,-999.0,78,-99.99,,,0.00,weatherlink.com 1.10,2013-01-28 03:35:00,
2013-01-27 19:50:00,44.6,38.0,30.14,WNW,290,0.0,-999.0,79,-99.99,,,0.00,weatherlink.com 1.10,2013-01-28 03:50:00,
2013-01-27 20:05:00,44.5,39.0,30.14,WNW,290,0.0,-999.0,80,-99.99,,,0.00,weatherlink.com 1.10,2013-01-28 04:05:00,
2013-01-27 20:20:00,44.3,39.0,30.14,WNW,290,0.0,-999.0,80,-99.99,,,0.00,weatherlink.com 1.10,2013-01-28 04:20:00,
2013-01-27 20:35:00,44.1,38.0,30.14,WNW,290,0.0,-999.0,80,-99.99,,,0.00,weatherlink.com 1.10,2013-01-28 04:35:00,
2013-01-27 20:51:00,43.9,38.0,30.14,WNW,290,0.0,-999.0,80,-99.99,,,0.00,weatherlink.com 1.10,2013-01-28 04:51:00,
2013-01-27 21:05:00,43.5,38.0,30.14,WNW,290,0.0,-999.0,80,-99.99,,,0.00,weatherlink.com 1.10,2013-01-28 05:05:00,
2013-01-27 21:20:00,43.3,37.0,30.14,WNW,290,0.0,-999.0,79,-99.99,,,0.00,weatherlink.com 1.10,2013-01-28 05:20:00,
2013-01-27 21:35:00,43.1,37.0,30.14,WNW,290,0.0,-999.0,79,-99.99,,,0.00,weatherlink.com 1.10,2013-01-28 05:35:00,
2013-01-27 21:50:00,42.8,37.0,30.14,WNW,290,0.0,-999.0,79,-99.99,,,0.00,weatherlink.com 1.10,2013-01-28 05:50:00,
2013-01-27 22:06:00,42.5,36.0,30.14,WNW,290,0.0,-999.0,79,-99.99,,,0.00,weatherlink.com 1.10,2013-01-28 06:06:00,
2013-01-27 22:20:00,42.2,36.0,30.15,WNW,290,0.0,-999.0,79,-99.99,,,0.00,weatherlink.com 1.10,2013-01-28 06:20:00,
2013-01-27 22:35:00,42.2,37.0,30.15,WNW,290,0.0,-999.0,81,-99.99,,,0.00,weatherlink.com 1.10,2013-01-28 06:35:00,
2013-01-27 22:50:00,42.6,36.0,30.15,WNW,290,0.0,-999.0,78,-99.99,,,0.00,weatherlink.com 1.10,2013-01-28 06:50:00,
2013-01-27 23:09:00,42.8,36.0,30.15,WNW,290,0.0,-999.0,78,-99.99,,,0.00,weatherlink.com 1.10,2013-01-28 07:09:00,
2013-01-27 23:20:00,42.8,36.0,30.15,WNW,290,0.0,-999.0,77,-99.99,,,0.00,weatherlink.com 1.10,2013-01-28 07:20:00,
2013-01-27 23:35:00,42.3,36.0,30.16,WNW,290,0.0,-999.0,78,-99.99,,,0.00,weatherlink.com 1.10,2013-01-28 07:35:00,
2013-01-27 23:50:00,42.5,36.0,30.16,WNW,290,0.0,-999.0,77,-99.99,,,0.00,weatherlink.com 1.10,2013-01-28 07:50:00,